Regional Weather Roundup
Issued by NWS

Home | Current Version | Previous Version | Text Only | Print | Product List | Glossary Off
Versions: 1 2 3 4 5 6 7 8 9 10 11 12 13 14 15 16 17 18 19 20 21 22 23 24 25 26 27 28 29 30 31 32 33 34 35 36 37 38 39 40 41 42 43 44 45 46 47 48 49 50

626
ASUS45 KCYS 250810
RWRWY

WYOMING REGIONAL WEATHER ROUNDUP
NATIONAL WEATHER SERVICE CHEYENNE WY
200 AM MDT THU MAY 25 2017

NOTE:  "FAIR" INDICATES FEW OR NO CLOUDS BELOW 12,000 FEET
WITH NO SIGNIFICANT WEATHER AND/OR OBSTRUCTIONS TO VISIBILITY.

WYZ001-250900-
YELLOWSTONE NATIONAL PARK

CITY           SKY/WX    TMP DP  RH WIND       PRES   REMARKS
LK YELLOWSTONE   N/A     34  14  43 VRB3      29.67R
W YELLOWSTONE  NOT AVBL

$$
WYZ002>013-054>058-071-098>099-250900-
NORTHERN WYOMING

CITY           SKY/WX    TMP DP  RH WIND       PRES   REMARKS
JACKSON        FAIR      45  12  26 SW9       29.60F
CODY           FAIR      47  18  31 NW12      29.56S
GREYBULL       FAIR      57  15  19 N21       29.44R
WORLAND        FAIR      56  25  30 W10       29.49R
SHERIDAN       FAIR      48  24  39 NW12      29.54S
BUFFALO        FAIR      51  23  33 NW15G25   29.57R
GILLETTE       FAIR      39  35  86 CALM      29.49F
HULETT         FAIR      50  37  62 CALM      29.50S
NEWCASTLE      FAIR      54  37  54 N18G28    29.44F

$$
WYZ014>020-022>026-101>103-250900-
CENTRAL WYOMING

CITY           SKY/WX    TMP DP  RH WIND       PRES   REMARKS
BIG PINEY      MOCLDY    39  35  86 N15       29.72R WCI  31
PINEDALE       LGT RAIN  37  34  87 CALM      29.71F
DUBOIS         FAIR      46  18  31 W24G33    29.55F
LANDER         FAIR      54  35  48 NW12      29.54S
RIVERTON       MOCLDY    59  29  31 W24G32    29.53S
CASPER         CLOUDY    51  45  79 CALM      29.59R HAZE
DOUGLAS        LGT RAIN  54  46  74 W15       29.59R

$$
WYZ021-027>030-104>119-250900-
SOUTHERN WYOMING

CITY           SKY/WX    TMP DP  RH WIND       PRES   REMARKS
EVANSTON       FAIR      49  44  83 N10       29.71R
FORT BRIDGER   FAIR      48  42  80 W6        29.72
ROCK SPRINGS   FAIR      51  41  68 CALM      29.66F
DIXON          LGT RAIN  53  44  71 N13       29.75R
RAWLINS        LGT RAIN  51  44  77 W16       29.69R
SARATOGA       LGT RAIN  48  45  87 W7        29.74R
LARAMIE        CLOUDY    48  36  63 CALM      29.67S
CHEYENNE       FAIR      55  36  48 NW3       29.60F
TORRINGTON     FAIR      57  43  59 N9        29.45F
PINE BLUFFS    FAIR      46  41  81 E6        29.55S

$$




USA.gov is the U.S. government's official web portal to all federal, state and local government web resources and services.